"Pseudo-MPEC" for C3ZQHA2

Created 2020 Nov 22 15:07:14 UT using Find_Orb

Click here for an explanation of pseudo-MPECs

 
 Astrometry: 
     C3ZQHA2  C2020 11 20.33216208 30 51.82 +53 42 16.6    ~BKBb 21.10GVNEOCPG96
     C3ZQHA2  C2020 11 20.33736008 30 55.76 +53 42 25.0    ~BKBb       VNEOCPG96
     C3ZQHA2  C2020 11 20.34256808 30 59.54 +53 42 33.9    ~BKBb 21.41GVNEOCPG96
     C3ZQHA2  C2020 11 20.34777708 31 03.56 +53 42 42.7    ~BKBb 21.52GVNEOCPG96
     C3ZQHA2 mC2020 11 20.47214708 32 35.78 +53 46 00.4    ~BKBb 21.53GVNEOCPG96
     C3ZQHA2 mC2020 11 20.47272808 32 36.18 +53 46 01.7    ~BKBb 21.48GVNEOCPG96
     C3ZQHA2 mC2020 11 20.47330708 32 36.62 +53 46 02.2    ~BKBb 21.67GVNEOCPG96
     C3ZQHA2 1C2020 11 20.93538 08 38 32.65 +53 56 12.6    ~BLAq 22.3 VVNEOCP033
     C3ZQHA2 1C2020 11 20.93777 08 38 34.37 +53 56 15.9    ~BLAq 21.8 VVNEOCP033
     C3ZQHA2 1C2020 11 20.94055 08 38 36.61 +53 56 19.9    ~BLAq 21.9 VVNEOCP033
     C3ZQHA2 1C2020 11 20.94306 08 38 38.48 +53 56 24.3    ~BLAq 21.8 VVNEOCP033
     C3ZQHA2 KC2020 11 21.37379708 44 07.79 +54 05 46.2    ~BL9b 21.21GVNEOCPI52
     C3ZQHA2 KC2020 11 21.37800008 44 10.99 +54 05 51.9    ~BL9b 21.03GVNEOCPI52
     C3ZQHA2 KC2020 11 21.38220408 44 13.99 +54 05 57.9    ~BL9b 21.59GVNEOCPI52
     C3ZQHA2 KC2020 11 21.38640708 44 17.25 +54 06 02.4    ~BL9b 21.48GVNEOCPI52
     C3ZQHA2 KC2020 11 22.40337008 57 12.11 +54 23 22.5    ~BMAM 19.18GVNEOCPI52
     C3ZQHA2 KC2020 11 22.40950908 57 16.75 +54 23 27.5    ~BMAM       VNEOCPI52
     C3ZQHA2 KC2020 11 22.41564808 57 21.24 +54 23 33.9    ~BMAM 20.36GVNEOCPI52

Station data:
(033) Karl Schwarzschild Observatory, Tautenburg  (N50.980140 E11.711240)
   Germany. 1.3-m Schmidt.
(G96) Mt. Lemmon Survey  (N32.442754 W110.788720)  US/Arizona.  Observers T.
   A. Pruyne, B. M. Africano, E. J. Christensen, G. A. Farneth, D. C. Fuls,
   A. R. Gibbs, A. D. Grauer, H. Gröller, J. A. Johnson, R. A. Kowalski, S.
   M. Larson, G. J. Leonard, D. Rankin, R. L. Seaman, F. C. Shelly. 1.5-m
   reflector + 10K CCD.
(I52) Steward Observatory, Mt. Lemmon Station  (N32.442547 W110.788920)
   US/Arizona.  Observers T. A. Pruyne, B. M. Africano, E. J. Christensen, G.
   A. Farneth, D. C. Fuls, A. R. Gibbs, A. D. Grauer, H. Gröller, J. A.
   Johnson, R. A. Kowalski, S. M. Larson, G. J. Leonard, D. Rankin, R. L.
   Seaman, F. C. Shelly. 1.0-m reflector + CCD.

Orbital elements:  C3ZQHA2
   Perihelion 2020 Dec 11.461664 +/- 0.0934 TT = 11:04:47 (JD 2459194.961664)
Epoch 2020 Nov 22.0 TT = JDT 2459175.5   Earth MOID: 0.1411   Ma: 0.0594
M 354.34743314 +/- 0.14             (J2000 ecliptic)          AutoNEOCP
n   0.29044622 +/- 0.00647          Peri.   54.40732 +/- 0.10
a   2.25818176 +/- 0.0335           Node    34.63847 +/- 0.07
e   0.5326521 +/- 0.00654           Incl.   10.79288 +/- 0.09
P   3.39                   H 23.0   G  0.15   U  9.4  
q 1.05535643 +/- 0.000913    Q 3.46100709 +/- 0.0672
From 18 observations 2020 Nov. 20-22; mean residual 0".38
Residuals in arcseconds: 
201120 G96  .05-  .10-    201120 G96  .04+  .07+    201121 I52  .28+  .22+    
201120 G96  .32+  .43-    201120 033  .31+  .03+    201121 I52  .86-  .67+    
201120 G96  .76-  .25-    201120 033  .57-  .17-    201121 I52  .30+  .35-    
201120 G96  .31+  .15-    201120 033  .52+  .24-    201122 I52  .53-  .42+    
201120 G96  .17+  .01+    201120 033  .17+  .48+    201122 I52  .46+  .60-    
201120 G96  .08-  .44+    201121 I52  .32-  .08+    201122 I52  .18+  .18-    

Ephemerides (geocentric):
Date (UTC) HH   RA              Dec         delta   r     elong  mag " sig PA
---- -- -- --  -------------   -----------  ------ ------ -----  --- ---- ---
2020 11 22 15  08 59 57.550   +54 26 15.44  .19178 1.0800 114.0 21.6 .227  72
2020 11 22 16  09 00 29.117   +54 26 48.32  .19182 1.0799 114.0 21.6 .225  71
2020 11 22 17  09 01 00.671   +54 27 20.68  .19187 1.0798 114.0 21.6 .224  71
2020 11 22 18  09 01 32.210   +54 27 52.51  .19191 1.0797 113.9 21.6 .222  70
2020 11 22 19  09 02 03.734   +54 28 23.82  .19196 1.0796 113.9 21.7 .221  70
2020 11 22 20  09 02 35.243   +54 28 54.60  .19200 1.0795 113.8 21.7 .219  69
2020 11 22 21  09 03 06.736   +54 29 24.86  .19204 1.0794 113.8 21.7 .218  69
2020 11 22 22  09 03 38.214   +54 29 54.60  .19209 1.0792 113.7 21.7 .216  68
2020 11 22 23  09 04 09.676   +54 30 23.81  .19214 1.0791 113.7 21.7 .214  68
2020 11 23 00  09 04 41.121   +54 30 52.51  .19218 1.0790 113.7 21.7 .212  67
2020 11 23 01  09 05 12.550   +54 31 20.68  .19223 1.0789 113.6 21.7 .210  66
2020 11 23 02  09 05 43.962   +54 31 48.33  .19227 1.0788 113.6 21.7 .208  66
2020 11 23 03  09 06 15.356   +54 32 15.47  .19232 1.0787 113.5 21.7 .206  65
2020 11 23 04  09 06 46.733   +54 32 42.09  .19237 1.0786 113.5 21.7 .204  64
2020 11 23 05  09 07 18.092   +54 33 08.19  .19242 1.0785 113.4 21.7 .202  63
2020 11 23 06  09 07 49.433   +54 33 33.78  .19246 1.0784 113.4 21.7 .200  63
2020 11 23 07  09 08 20.756   +54 33 58.85  .19251 1.0783 113.4 21.7 .198  62
2020 11 23 08  09 08 52.059   +54 34 23.41  .19256 1.0782 113.3 21.7 .196  61
2020 11 23 09  09 09 23.344   +54 34 47.45  .19261 1.0781 113.3 21.7 .193  60
2020 11 23 10  09 09 54.609   +54 35 10.99  .19266 1.0780 113.2 21.7 .191  59
2020 11 23 11  09 10 25.855   +54 35 34.01  .19271 1.0779 113.2 21.7 .189  58
2020 11 23 12  09 10 57.081   +54 35 56.53  .19276 1.0778 113.1 21.7 .186  57
2020 11 23 13  09 11 28.286   +54 36 18.53  .19281 1.0777 113.1 21.7 .184  56
2020 11 23 14  09 11 59.471   +54 36 40.03  .19286 1.0776 113.1 21.7 .182  55
2020 11 23 15  09 12 30.635   +54 37 01.02  .19291 1.0775 113.0 21.7 .179  54
2020 11 23 16  09 13 01.778   +54 37 21.51  .19296 1.0774 113.0 21.7 .177  53
2020 11 23 17  09 13 32.900   +54 37 41.49  .19301 1.0773 112.9 21.7 .175  51
2020 11 23 18  09 14 03.999   +54 38 00.97  .19306 1.0772 112.9 21.7 .172  50
2020 11 23 19  09 14 35.077   +54 38 19.94  .19311 1.0771 112.8 21.7 .170  49
2020 11 23 20  09 15 06.133   +54 38 38.42  .19316 1.0770 112.8 21.7 .168  47
2020 11 23 21  09 15 37.166   +54 38 56.40  .19322 1.0769 112.8 21.7 .165  46
2020 11 23 22  09 16 08.176   +54 39 13.87  .19327 1.0768 112.7 21.7 .163  44
2020 11 23 23  09 16 39.163   +54 39 30.85  .19332 1.0767 112.7 21.7 .161  42
2020 11 24 00  09 17 10.127   +54 39 47.33  .19338 1.0766 112.6 21.7 .159  40
2020 11 24 01  09 17 41.066   +54 40 03.32  .19343 1.0765 112.6 21.7 .157  39
2020 11 24 02  09 18 11.982   +54 40 18.81  .19348 1.0764 112.5 21.7 .156  37
2020 11 24 03  09 18 42.874   +54 40 33.81  .19354 1.0763 112.5 21.7 .154  35
2020 11 24 04  09 19 13.741   +54 40 48.32  .19359 1.0762 112.5 21.7 .153  33
2020 11 24 05  09 19 44.584   +54 41 02.34  .19365 1.0761 112.4 21.7 .151  30
2020 11 24 06  09 20 15.401   +54 41 15.86  .19370 1.0760 112.4 21.7 .150  28
2020 11 24 07  09 20 46.193   +54 41 28.90  .19376 1.0759 112.3 21.7 .149  26
2020 11 24 08  09 21 16.959   +54 41 41.45  .19381 1.0758 112.3 21.7 .149  23
2020 11 24 09  09 21 47.700   +54 41 53.52  .19387 1.0757 112.3 21.7 .148  21
2020 11 24 10  09 22 18.414   +54 42 05.10  .19392 1.0756 112.2 21.7 .148  18
2020 11 24 11  09 22 49.102   +54 42 16.20  .19398 1.0755 112.2 21.7 .148  16
2020 11 24 12  09 23 19.763   +54 42 26.81  .19404 1.0754 112.1 21.7 .148  13
2020 11 24 13  09 23 50.398   +54 42 36.95  .19409 1.0753 112.1 21.7 .149  11
2020 11 24 14  09 24 21.005   +54 42 46.60  .19415 1.0752 112.0 21.7 .150   8